Hourly Data Report for April 15, 2021

KUGAARUK CLIMATE
NUNAVUT
Current Station Operator: ECCC - MSC

68°32'15.060" N
89°47'47.020" W
15.80 m
2303094
71407
NBB

Download Data

Hourly Data (April 2021)
Hourly Data Report for April 15, 2021
TIME
LST
Temp Definition
°C
Dew Point Definition
°C
Rel Hum Definition
%
Precip. Amount Definition
mm

Wind Dir Definition
10's deg

Wind Spd Definition
km/h
Visibility Definition
km
Stn Press Definition
kPa
Hmdx Definition


Wind Chill Definition


Weather Definition


00:00 -13.9 -15.8 85 0.0 7 5   102.97   -17 LegendNANA
01:00 -14.0 -16.0 85 0.0 1 7   102.98   -19 LegendNANA
02:00 -14.9 -17.1 84 0.0 2 14   102.98   -22 LegendNANA
03:00 -16.2 -18.4 83 0.0 2 16   102.98   -25 LegendNANA
04:00 -17.0 -19.3 82 0.0 5 12   103.01   -24 LegendNANA
05:00 -17.0 -19.5 81 0.0 5 10   103.03   -24 LegendNANA
06:00 -16.5 -19.1 80 0.3 5 11   103.05   -23 LegendNANA
07:00 -17.3 -20.2 78 0.0 3 14   103.03   -25 LegendNANA
08:00 -18.1 -21.4 75 0.2 2 19   103.09   -28 LegendNANA
09:00 -18.0 -21.5 73 0.0 2 17   103.10   -27 LegendNANA
10:00 -18.1 -22.2 71 0.0 1 16   103.10   -27 LegendNANA
11:00 -17.5 -21.9 69 0.0 2 13   103.09   -25 LegendNANA
12:00 -16.6 -21.6 66 0.0 4 10   103.11   -23 LegendNANA
13:00 -15.9 -20.6 67 0.0 2 12   103.13   -23 LegendNANA
14:00 -15.8 -20.3 68 0.0 2 12   103.12   -23 LegendNANA
15:00 -16.3 -20.4 70 0.0 2 14   103.12   -24 LegendNANA
16:00 -17.3 -21.3 71 0.0 4 12   103.08   -25 LegendNANA
17:00 -18.2 -21.8 73 0.0 7 9   103.07   -25 LegendNANA
18:00 -19.6 -22.8 75 0.0 9 9   103.05   -26 LegendNANA
19:00 -22.1 -24.4 82 0.0 7 7   103.02   -28 LegendNANA
20:00 -23.2 -25.4 83 0.0 4 4   103.00   -27 LegendNANA
21:00 -20.8 -22.6 85 0.0 6 3   102.97   -23 LegendNANA
22:00 -24.7 -26.9 82 0.0 6 4   102.93   -29 LegendNANA
23:00 -27.1 -29.7 78 0.0 7 5   102.90   -32 LegendNANA

Notes on Data Quality.

Legend

  • E = Estimated
  • M = Missing
  • NA = Not Available*
  • [empty] = Indicates an unobserved value
Date modified: